Starlink 31144

operational
NORAD ID: 58682 Int'l Des: 2023-211 Owner: SPXS Country: US Constellation: starlink
LEOCIRCULAR

Über Starlink 31144

Beschreibung wird geladen...

Live-Position

3D-Globus wird geladen...

Nächste Überflüge

Höhenverlauf

Altitude vs Time

uPlot chart will show altitude changes over time

Zweizeiliger Elementsatz

1 58682U 23211R 25260.24662305 -.00000647 00000-0 -13939-4 0 9999
2 58682 43.0049 344.3673 0003434 285.3416 74.7057 15.27569276 95941
Epoch: 17. Sept. 2025 • Age: 42 hours

Aktueller Status

Höhe 488.9 km
Geschwindigkeit 7.62 km/s
Subsatellitenpunkt -30.25°S, 63.41°W
Startdatum 29. Dez. 2023
Alter 1.7 years
Typ internet

Technische Details

Klassifizierung Payload
Masse 730.00 kg
Trockenmasse 700.00 kg
Gesamtmasse 730.00 kg
Länge 0.30 m
Durchmesser 4.10 m
Spannweite 29.00 m
Form Box + pan
Hersteller SPXS
Bus-Typ Starlink V2M
Phasenstatus In Orbit
Besitzer/Staat SPXS/US

Große Konstellationen

Loading constellations...